Weather History for KSSC - April, 2013

Change the Weather History Date:

Tuesday, April 30, 2013

  Actual Average Record
Temperature  
Mean Temperature 68 °F -  
Max Temperature 75 °F 74 °F 87 °F (2007)
Min Temperature 60 °F 53 °F 35 °F (1999)
Cooling Degree Days 2    
Growing Degree Days 18 (Base 50)    
Moisture  
Dew Point 61 °F    
Average Humidity 88    
Maximum Humidity 100    
Minimum Humidity 53    
Precipitation  
Precipitation 0.00 in - - ()
Sea Level Pressure  
Sea Level Pressure 30.02 in    
Wind  
Wind Speed 4 mph (NE)    
Max Wind Speed 15 mph    
Max Gust Speed -    
Visibility 7 miles    
Events Fog    
Averages and records for this station are not official NWS values.
T = Trace of Precipitation, MM = Missing Value Source: NWS Daily Summary

Daily Weather History Graph

Daily Weather History Graph

Search for Another Location

Airport or City:

Trip Planner

Search our weather history database for the weather conditions in past years. The results will help you decide how hot, cold, wet, or windy it might be!

Date:

Astronomy

Apr. 30, 2013 Rise Set
Actual Time 6:33 AM EDT 8:05 PM EDT
Civil Twilight 6:06 AM EDT 8:31 PM EDT
Nautical Twilight 5:35 AM EDT 9:03 PM EDT
Astronomical Twilight 5:01 AM EDT 9:37 PM EDT
Moon 12:23 AM EDT 11:03 AM EDT
Length of Visible Light 14h 24m
Length of Day
13h 31m
Waning Gibbous, 70% of the Moon is Illuminated
Apr 30
Waning Gibbous
May 2
Last Quarter
May 9
New
May 18
First Quarter
May 25
Full

Hourly Weather History & Observations

Time (EDT) Temp. Dew Point Humidity Pressure Visibility Wind Dir Wind Speed Gust Speed Precip Events Conditions
12:03 AM 64.4 °F 62.6 °F 94% 29.99 in 10.0 mi South 4.6 mph - N/A   Mostly Cloudy
12:18 AM 64.4 °F 62.6 °F 94% 29.98 in 9.0 mi SSW 3.5 mph - N/A   Mostly Cloudy
12:23 AM 62.6 °F 62.6 °F 100% 29.98 in 8.0 mi SSW 2.3 mph - N/A   Mostly Cloudy
12:28 AM 62.6 °F 62.6 °F 100% 29.97 in 7.0 mi SSW 2.3 mph - N/A   Mostly Cloudy
12:38 AM 62.6 °F 62.6 °F 100% 29.97 in 5.0 mi Calm Calm - N/A   Mostly Cloudy
12:43 AM 62.6 °F 62.6 °F 100% 29.98 in 3.0 mi Calm Calm - N/A   Scattered Clouds
12:48 AM 62.6 °F 62.6 °F 100% 29.97 in 1.2 mi Calm Calm - N/A   Mostly Cloudy
12:53 AM 62.6 °F 62.6 °F 100% 29.98 in 0.8 mi Calm Calm - N/A   Mist
12:58 AM 62.8 °F 62.1 °F 97% 29.98 in 0.8 mi Calm Calm - N/A   Mist
1:03 AM 62.6 °F 62.6 °F 100% 29.98 in 0.5 mi Calm Calm - N/A Fog Fog
1:08 AM 62.6 °F 62.6 °F 100% 29.98 in 0.5 mi Calm Calm - N/A Fog Fog
1:13 AM 62.6 °F 62.6 °F 100% 29.98 in 1.0 mi ESE 2.3 mph - N/A   Mist
1:23 AM 62.6 °F 60.8 °F 94% 29.98 in 0.5 mi Calm Calm - N/A Fog Fog
1:28 AM 62.6 °F 62.6 °F 100% 29.98 in 0.8 mi Calm Calm - N/A   Mist
1:33 AM 62.6 °F 62.6 °F 100% 29.98 in 1.2 mi Variable 1.2 mph - N/A   Overcast
1:38 AM 62.6 °F 62.6 °F 100% 29.98 in 4.0 mi North 2.3 mph - N/A   Overcast
1:48 AM 62.6 °F 62.6 °F 100% 29.98 in 3.0 mi NW 2.3 mph - N/A   Overcast
1:53 AM 62.6 °F 62.6 °F 100% 29.97 in 5.0 mi Calm Calm - N/A   Overcast
1:58 AM 63.0 °F 62.6 °F 99% 29.97 in 7.0 mi ENE 2.3 mph - N/A   Overcast
2:13 AM 62.6 °F 62.6 °F 100% 29.97 in 7.0 mi East 2.3 mph - N/A   Overcast
2:18 AM 62.6 °F 62.6 °F 100% 29.97 in 7.0 mi ESE 1.2 mph - N/A   Overcast
2:23 AM 62.6 °F 62.6 °F 100% 29.97 in 7.0 mi ESE 2.3 mph - N/A   Overcast
2:33 AM 62.6 °F 62.6 °F 100% 29.97 in 10.0 mi East 2.3 mph - N/A   Overcast
2:48 AM 62.6 °F 62.6 °F 100% 29.98 in 10.0 mi Calm Calm - N/A   Overcast
2:58 AM 62.8 °F 62.2 °F 98% 29.97 in 10.0 mi ENE 3.5 mph - N/A   Overcast
3:03 AM 62.6 °F 62.6 °F 100% 29.97 in 10.0 mi ENE 2.3 mph - N/A   Overcast
3:48 AM 62.6 °F 60.8 °F 94% 29.98 in 9.0 mi East 4.6 mph - N/A   Overcast
3:58 AM 62.4 °F 61.5 °F 97% 29.98 in 5.0 mi ENE 4.6 mph - N/A   Overcast
4:03 AM 62.6 °F 60.8 °F 94% 29.99 in 5.0 mi NE 4.6 mph - N/A   Overcast
4:23 AM 62.6 °F 60.8 °F 94% 29.99 in 2.5 mi East 2.3 mph - N/A   Overcast
4:53 AM 62.6 °F 60.8 °F 94% 29.99 in 4.0 mi NE 4.6 mph - N/A   Overcast
4:58 AM 61.9 °F 61.3 °F 98% 29.99 in 5.0 mi NNE 4.6 mph - N/A   Overcast
5:03 AM 62.6 °F 60.8 °F 94% 29.99 in 6.0 mi ENE 2.3 mph - N/A   Overcast
5:13 AM 60.8 °F 60.8 °F 100% 29.99 in 4.0 mi NNE 4.6 mph - N/A   Overcast
5:18 AM 60.8 °F 60.8 °F 100% 29.99 in 5.0 mi ENE 4.6 mph - N/A   Overcast
5:23 AM 60.8 °F 60.8 °F 100% 29.99 in 5.0 mi NE 3.5 mph - N/A   Overcast
5:53 AM 60.8 °F 60.8 °F 100% 30.00 in 2.5 mi ENE 3.5 mph - N/A   Overcast
5:58 AM 61.3 °F 61.2 °F 99% 30.00 in 2.5 mi ENE 3.5 mph - N/A   Overcast
6:23 AM 60.8 °F 60.8 °F 100% 30.01 in 4.0 mi NNE 3.5 mph - N/A   Overcast
6:55 AM 61.5 °F 61.5 °F 100% 30.03 in 2.0 mi North 6.9 mph - N/A   Overcast
7:36 AM 62.6 °F 62.6 °F 100% 30.03 in 2.5 mi NNE 5.8 mph - N/A   Overcast
7:55 AM 61.9 °F 61.7 °F 99% 30.05 in 3.0 mi NE 5.8 mph - N/A   Overcast
8:40 AM 62.6 °F 62.6 °F 100% 30.05 in 5.0 mi NNE 8.1 mph - N/A   Overcast
8:55 AM 62.6 °F 61.7 °F 97% 30.05 in 5.0 mi NE 8.1 mph - N/A   Overcast
9:33 AM 62.6 °F 60.8 °F 94% 30.06 in 6.0 mi NE 8.1 mph - N/A   Overcast
9:55 AM 64.4 °F 59.5 °F 84% 30.06 in 10.0 mi NE 10.4 mph - N/A   Overcast
10:58 AM 66.6 °F 58.5 °F 75% 30.06 in 10.0 mi NNE 9.2 mph - N/A   Overcast
11:55 AM 68.0 °F 57.2 °F 68% 30.07 in 10.0 mi NE 10.4 mph - N/A   Overcast
12:50 PM 68.0 °F 57.2 °F 68% 30.06 in 10.0 mi NE 9.2 mph - N/A   Overcast
12:56 PM 68.0 °F 57.2 °F 68% 30.06 in 10.0 mi NE 10.4 mph - N/A   Overcast
1:55 PM 69.8 °F 57.2 °F 64% 30.06 in 10.0 mi NNE 12.7 mph - N/A   Overcast
2:44 PM 68.0 °F 59.0 °F 73% 30.06 in 10.0 mi NNE 12.7 mph - N/A   Overcast
2:46 PM 68.0 °F 59.0 °F 73% 30.06 in 10.0 mi NNE 12.7 mph - N/A   Overcast
2:47 PM 68.0 °F 59.0 °F 73% 30.06 in 10.0 mi NNE 12.7 mph - N/A   Overcast
2:48 PM 68.0 °F 59.0 °F 73% 30.06 in 10.0 mi NNE 12.7 mph - N/A   Overcast
2:49 PM 68.0 °F 59.0 °F 73% 30.06 in 10.0 mi NE 13.8 mph - N/A   Overcast
2:55 PM 66.2 °F 57.2 °F 73% 30.06 in 10.0 mi NE 10.4 mph - N/A   Overcast
2:57 PM 68.0 °F 57.2 °F 68% 30.06 in 10.0 mi ENE 10.4 mph - N/A   Overcast
3:02 PM 68.0 °F 59.0 °F 73% 30.06 in 10.0 mi ENE 8.1 mph - N/A   Overcast
3:42 PM 69.8 °F 57.2 °F 64% 30.05 in 10.0 mi ENE 5.8 mph - N/A   Overcast
3:55 PM 71.6 °F 57.2 °F 60% 30.04 in 10.0 mi NE 8.1 mph - N/A   Overcast
4:55 PM 73.4 °F 57.2 °F 57% 30.04 in 10.0 mi North 3.5 mph - N/A   Partly Cloudy
5:55 PM 75.2 °F 57.2 °F 53% 30.05 in 10.0 mi ESE 2.3 mph - N/A   Partly Cloudy
6:55 PM 73.4 °F 57.2 °F 57% 30.05 in 10.0 mi North 4.6 mph - N/A   Clear
7:55 PM 69.8 °F 59.0 °F 68% 30.06 in 10.0 mi NNE 5.8 mph - N/A   Mostly Cloudy
8:58 PM 68.2 °F 59.0 °F 72% 30.08 in 10.0 mi NNE 6.9 mph - N/A   Mostly Cloudy
9:58 PM 67.8 °F 58.6 °F 72% 30.10 in 10.0 mi NE 15.0 mph - N/A   Mostly Cloudy
10:58 PM 64.8 °F 57.9 °F 78% 30.12 in 10.0 mi NE 9.2 mph - N/A   Scattered Clouds
11:58 PM 63.5 °F 55.0 °F 74% 30.13 in 10.0 mi NE 10.4 mph - N/A   Mostly Cloudy